IK3CSU Weather Reports


time (UTC)temp
C
wind
direction
speed
KPH
gust
KPH
rain 1hr
cm
rain 24hr
cm
rain mn
cm
humidity
%
barometer
mb
20260504232410 13 0 0.0 0.0 0.00 0.00 0.00 69 1014.8
20260504231510 13 90 0.0 3.2 0.00 0.00 0.00 68 1015.1
20260504230611 14 86 0.0 3.2 0.00 0.00 0.00 69 1015.2
20260504225710 14 104 0.0 4.8 0.00 0.00 0.00 68 1015.2
20260504224810 13 135 0.0 3.2 0.00 0.00 0.00 68 1015.2
20260504224121 13 0 0.0 0.0 0.00 0.00 0.00 68 1015.3
20260504223010 13 0 0.0 0.0 0.00 0.00 0.00 68 1015.4
20260504222321 14 0 0.0 0.0 0.00 0.00 0.00 68 1015.3
20260504221210 14 0 0.0 0.0 0.00 0.00 0.00 68 1015.4
20260504220521 14 0 0.0 0.0 0.00 0.00 0.00 68 1015.5
20260504215623 14 0 0.0 0.0 0.00 0.00 0.00 68 1015.4
20260504214510 14 0 0.0 0.0 0.00 0.00 0.00 68 1015.4
20260504213610 14 355 0.0 4.8 0.00 0.00 0.00 68 1015.5
20260504212711 15 359 0.0 4.8 0.00 0.00 0.00 67 1015.5
20260504212022 15 356 0.0 4.8 0.00 0.00 0.00 67 1015.6
20260504210910 15 22 0.0 4.8 0.00 0.00 0.00 66 1015.4
20260504210222 15 0 0.0 0.0 0.00 0.00 0.00 65 1015.5
20260504205319 15 0 0.0 0.0 0.00 0.00 0.00 65 1015.6
20260504204422 15 0 0.0 0.0 0.00 0.00 0.00 64 1015.5
20260504203524 15 39 0.0 4.8 0.00 0.00 0.00 64 1015.3
20260504202410 15 45 0.0 3.2 0.00 0.00 0.00 63 1015.4
20260504201724 15 0 0.0 0.0 0.00 0.00 0.00 63 1015.4
20260504200610 15 0 0.0 0.0 0.00 0.00 0.00 61 1015.4
20260504195710 15 0 0.0 0.0 0.00 0.00 0.00 61 1015.4
20260504195021 16 0 0.0 0.0 0.00 0.00 0.00 60 1015.3
20260504194123 16 0 0.0 0.0 0.00 0.00 0.00 59 1015.3
20260504193220 16 0 0.0 0.0 0.00 0.00 0.00 58 1015.2
20260504192110 16 0 0.0 0.0 0.00 0.00 0.00 55 1015.1
20260504191420 16 0 0.0 0.0 0.00 0.00 0.00 53 1015.1
20260504190522 17 0 0.0 0.0 0.00 0.00 0.00 51 1015.0
20260504185410 17 0 0.0 0.0 0.00 0.00 0.00 50 1014.9
20260504184510 17 0 0.0 0.0 0.00 0.00 0.00 48 1014.9
20260504183819 18 0 0.0 0.0 0.00 0.00 0.00 47 1014.9
20260504182710 18 167 0.0 4.8 0.00 0.00 0.00 45 1014.8
20260504182024 18 144 0.0 4.8 0.00 0.00 0.00 44 1014.8
20260504180910 19 0 0.0 0.0 0.00 0.00 0.00 43 1014.7
20260504180224 19 149 0.0 6.4 0.00 0.00 0.00 43 1014.6
20260504175321 20 144 0.0 9.7 0.00 0.00 0.00 43 1014.6
20260504174210 20 126 0.0 8.0 0.00 0.00 0.00 43 1014.5
20260504173521 20 155 0.0 8.0 0.00 0.00 0.00 43 1014.5
20260504172623 20 166 1.6 12.9 0.00 0.00 0.00 42 1014.4
20260504171510 20 163 1.6 11.3 0.00 0.00 0.00 42 1014.5
20260504170823 20 177 4.8 11.3 0.00 0.00 0.00 42 1014.5
20260504160310 21 145 3.2 12.9 0.00 0.00 0.00 41 1014.6
20260504150910 23 175 3.2 12.9 0.00 0.00 0.00 42 1014.7
20260504140610 25 143 0.0 6.4 0.00 0.00 0.00 26 1014.9
20260504130521 24 97 1.6 12.9 0.00 0.00 0.00 33 1015.4
20260504100523 23 13 4.8 12.9 0.00 0.00 0.00 31 1016.7
20260504081510 21 31 3.2 8.0 0.00 0.00 0.00 36 1017.1
20260504080824 20 307 3.2 6.4 0.00 0.00 0.00 37 1017.2
20260504050610 12 15 0.0 3.2 0.00 0.00 0.00 68 1016.4
20260504045710 11 12 1.6 6.4 0.00 0.00 0.00 68 1016.3
20260504045020 11 9 1.6 6.4 0.00 0.00 0.00 69 1016.1
20260504044123 11 16 1.6 4.8 0.00 0.00 0.00 69 1016.1
20260504043010 11 11 1.6 6.4 0.00 0.00 0.00 70 1016.0
20260504042322 11 12 1.6 6.4 0.00 0.00 0.00 69 1016.0
20260504041210 11 359 1.6 6.4 0.00 0.00 0.00 69 1016.0
20260504040522 11 12 0.0 3.2 0.00 0.00 0.00 69 1016.0
20260504035624 11 12 0.0 4.8 0.00 0.00 0.00 69 1016.0
20260504034722 11 347 0.0 4.8 0.00 0.00 0.00 69 1016.0
20260504033824 11 350 0.0 4.8 0.00 0.00 0.00 69 1016.0
20260504032710 11 360 0.0 3.2 0.00 0.00 0.00 68 1016.0
20260504031810 11 10 0.0 3.2 0.00 0.00 0.00 68 1016.0
20260504031121 11 3 0.0 4.8 0.00 0.00 0.00 68 1016.0
20260504030010 11 14 0.0 4.8 0.00 0.00 0.00 68 1015.9
20260504025321 11 30 0.0 4.8 0.00 0.00 0.00 68 1016.0
20260504024210 11 0 0.0 0.0 0.00 0.00 0.00 67 1016.1
20260504023310 12 0 0.0 0.0 0.00 0.00 0.00 67 1016.2
20260504022623 12 8 0.0 4.8 0.00 0.00 0.00 67 1016.0
20260504021510 12 7 0.0 4.8 0.00 0.00 0.00 66 1016.1
20260504020610 12 0 0.0 0.0 0.00 0.00 0.00 66 1016.0
20260504015710 12 345 0.0 4.8 0.00 0.00 0.00 66 1016.0
20260504015022 12 2 0.0 4.8 0.00 0.00 0.00 66 1016.0
20260504013910 12 325 0.0 3.2 0.00 0.00 0.00 66 1015.9
20260504013010 12 360 0.0 3.2 0.00 0.00 0.00 66 1016.0
20260504012324 12 360 0.0 1.6 0.00 0.00 0.00 66 1016.0
20260504011421 12 0 0.0 0.0 0.00 0.00 0.00 66 1016.1
20260504010310 12 0 0.0 0.0 0.00 0.00 0.00 66 1016.0
20260504005621 12 0 0.0 0.0 0.00 0.00 0.00 66 1016.1
20260504004723 12 0 0.0 0.0 0.00 0.00 0.00 66 1016.1
20260504003610 12 90 0.0 3.2 0.00 0.00 0.00 66 1016.1
20260504002923 12 90 0.0 1.6 0.00 0.00 0.00 66 1016.2
20260504002020 12 0 0.0 0.0 0.00 0.00 0.00 66 1016.3
20260504001123 13 0 0.0 0.0 0.00 0.00 0.00 66 1016.4
20260504000010 12 0 0.0 0.0 0.00 0.00 0.00 68 1016.3
20260503235110 12 90 0.0 1.6 0.00 0.00 0.00 68 1016.3
20260503234210 12 0 0.0 0.0 0.00 0.00 0.00 67 1016.4
20260503233522 12 0 0.0 0.0 0.00 0.00 0.00 67 1016.4